KE8BSM Weather Reports


time (UTC)temp
F
wind
direction
speed
knots
gust
knots
rain 1hr
in
rain 24hr
in
rain mn
in
humidity
%
barometer
mb
20260509085823 51 174 1.7 2.6 0.00 0.00 0.00 88 1003.1
20260509084817 51 191 0.9 2.6 0.00 0.00 0.00 88 1003.1
20260509083818 51 171 0.0 1.7 0.00 0.00 0.00 87 1003.2
20260509082818 51 199 0.0 0.9 0.00 0.00 0.00 86 1003.3
20260509081818 51 171 1.7 2.6 0.00 0.00 0.00 85 1003.5
20260509080815 51 176 1.7 2.6 0.00 0.00 0.00 84 1003.7
20260509075815 51 92 0.0 0.9 0.00 0.00 0.00 83 1003.7
20260509074815 51 166 0.9 1.7 0.00 0.00 0.00 82 1003.6
20260509073816 51 166 0.9 1.7 0.00 0.00 0.00 80 1003.8
20260509072816 51 232 2.6 4.3 0.00 0.00 0.00 79 1003.9
20260509071836 52 188 0.9 1.7 0.00 0.00 0.00 77 1004.1
20260509070816 52 175 0.9 2.6 0.00 0.00 0.00 75 1004.3
20260509065816 52 198 0.9 1.7 0.00 0.00 0.00 73 1004.5
20260509064837 52 189 0.9 1.7 0.00 0.00 0.00 70 1004.4
20260509063816 52 211 0.9 1.7 0.00 0.00 0.00 65 1004.4
20260509062817 52 200 0.0 1.7 0.00 0.00 0.00 59 1004.5
20260509061817 52 202 0.9 1.7 0.00 0.00 0.00 55 1004.7
20260509060817 52 213 0.0 1.7 0.00 0.00 0.00 52 1004.7
20260509055817 52 0.0 0.0 0.00 0.00 0.00 46 1004.7
20260509054817 52 0.0 0.0 0.00 0.00 0.00 45 1004.8
20260509053837 53 186 0.9 1.7 0.00 0.00 0.00 44 1004.9
20260509052838 53 192 0.0 0.9 0.00 0.00 0.00 43 1005.0
20260509051818 52 177 2.6 3.5 0.00 0.00 0.00 44 1004.8
20260509050815 52 176 0.9 2.6 0.00 0.00 0.00 44 1004.8
20260509045818 51 173 0.0 1.7 0.00 0.00 0.00 46 1004.9
20260509044835 50 135 0.9 1.7 0.00 0.00 0.00 49 1005.0
20260509043815 50 0.0 0.0 0.00 0.00 0.00 50 1005.1
20260509042835 50 0.0 0.0 0.00 0.00 0.00 50 1005.1
20260509041816 50 0.0 0.0 0.00 0.00 0.00 50 1005.2
20260509040836 50 0.0 0.0 0.00 0.00 0.00 51 1005.3
20260509035816 50 138 0.0 1.7 0.00 0.00 0.00 48 1005.4
20260509034816 50 0.0 0.0 0.00 0.00 0.00 48 1005.6
20260509033816 50 139 0.0 1.7 0.00 0.00 0.00 49 1005.7
20260509032816 50 0.0 0.0 0.00 0.00 0.00 49 1005.7
20260509031816 50 0.0 0.0 0.00 0.00 0.00 48 1005.8
20260509030837 51 0.0 0.0 0.00 0.00 0.00 47 1005.9
20260509025817 51 0.0 0.0 0.00 0.00 0.00 47 1006.0
20260509024817 51 127 0.0 0.9 0.00 0.00 0.00 46 1006.1
20260509023817 51 0.0 0.0 0.00 0.00 0.00 45 1006.2
20260509022817 52 137 0.0 0.9 0.00 0.00 0.00 50 1006.4
20260509021817 52 208 0.0 0.9 0.00 0.00 0.00 45 1006.4
20260509020818 52 0.0 0.0 0.00 0.00 0.00 48 1006.4
20260509015838 53 0.0 0.0 0.00 0.00 0.00 45 1006.3
20260509014818 53 0.0 0.0 0.00 0.00 0.00 42 1006.2
20260509013818 54 0.0 0.0 0.00 0.00 0.00 45 1006.2
20260509012815 54 0.0 0.0 0.00 0.00 0.00 41 1006.2
20260509011815 55 0.0 0.0 0.00 0.00 0.00 42 1006.1
20260509010816 56 0.0 0.0 0.00 0.00 0.00 37 1006.1
20260509005816 56 0.0 0.0 0.00 0.00 0.00 38 1006.1
20260509004816 57 0.0 0.0 0.00 0.00 0.00 39 1006.2
20260509003816 58 0.0 0.0 0.00 0.00 0.00 36 1006.2
20260509002816 59 0.0 0.0 0.00 0.00 0.00 35 1006.2
20260509001816 60 0.0 0.0 0.00 0.00 0.00 33 1006.2
20260509000816 60 0.0 0.0 0.00 0.00 0.00 29 1006.3
20260508235837 60 20 0.9 1.7 0.00 0.00 0.00 30 1006.5
20260508234837 61 240 0.0 0.9 0.00 0.00 0.00 29 1006.6
20260508233815 61 227 0.0 1.7 0.00 0.00 0.00 27 1006.7
20260508232816 62 88 0.9 1.7 0.00 0.00 0.00 30 1006.8
20260508231816 62 241 0.0 1.7 0.00 0.00 0.00 27 1006.9
20260508230816 62 210 0.9 1.7 0.00 0.00 0.00 31 1007.0
20260508225816 63 32 2.6 3.5 0.00 0.00 0.00 28 1006.9
20260508224815 63 198 1.7 3.5 0.00 0.00 0.00 31 1006.9
20260508223815 63 14 3.5 6.1 0.00 0.00 0.00 32 1006.9
20260508222835 63 296 1.7 5.2 0.00 0.00 0.00 29 1007.0
20260508221815 63 219 1.7 2.6 0.00 0.00 0.00 28 1007.0
20260508220815 63 295 1.7 3.5 0.00 0.00 0.00 30 1007.1
20260508215815 63 198 2.6 3.5 0.00 0.00 0.00 28 1007.0
20260508214816 62 267 1.7 2.6 0.00 0.00 0.00 30 1007.0
20260508213856 63 44 2.6 6.1 0.00 0.00 0.00 29 1007.0
20260508212816 63 345 3.5 4.3 0.00 0.00 0.00 30 1007.1
20260508211816 63 27 1.7 3.5 0.00 0.00 0.00 30 1007.2
20260508210816 62 197 1.7 3.5 0.00 0.00 0.00 29 1007.2
20260508205817 62 242 1.7 2.6 0.00 0.00 0.00 29 1007.2
20260508204817 62 19 1.7 3.5 0.00 0.00 0.00 30 1007.4
20260508203817 62 208 2.6 5.2 0.00 0.00 0.00 29 1007.4
20260508202817 61 105 1.7 4.3 0.00 0.00 0.00 30 1007.6
20260508201817 61 11 2.6 4.3 0.00 0.00 0.00 30 1007.7
20260508200818 61 165 2.6 4.3 0.00 0.00 0.00 32 1007.8
20260508195837 61 223 1.7 4.3 0.00 0.00 0.00 30 1008.0
20260508194815 61 269 1.7 3.5 0.00 0.00 0.00 31 1008.1
20260508193815 61 222 2.6 2.6 0.00 0.00 0.00 31 1008.1
20260508192815 60 127 3.5 6.1 0.00 0.00 0.00 33 1008.3
20260508191816 60 4 1.7 3.5 0.00 0.00 0.00 31 1008.4
20260508190816 60 358 2.6 7.0 0.00 0.00 0.00 32 1008.4
20260508185816 60 232 1.7 2.6 0.00 0.00 0.00 31 1008.5
20260508184816 60 196 1.7 2.6 0.00 0.00 0.00 29 1008.5
20260508183816 61 27 3.5 7.8 0.00 0.00 0.00 29 1008.6
20260508182816 60 225 2.6 3.5 0.00 0.00 0.00 29 1008.7
20260508181816 60 25 0.9 2.6 0.00 0.00 0.00 28 1008.7
20260508180816 60 285 0.9 2.6 0.00 0.00 0.00 29 1008.8
20260508175817 60 3 1.7 3.5 0.00 0.00 0.00 29 1008.9
20260508174837 59 98 1.7 3.5 0.00 0.00 0.00 30 1009.0
20260508173817 59 19 3.5 5.2 0.00 0.00 0.00 31 1009.2
20260508172857 59 197 4.3 6.1 0.00 0.00 0.00 30 1009.4
20260508171838 59 208 1.7 5.2 0.00 0.00 0.00 32 1009.5
20260508170817 59 218 3.5 6.1 0.00 0.00 0.00 31 1009.6
20260508165817 59 30 2.6 3.5 0.00 0.00 0.00 33 1009.8
20260508164818 58 284 1.7 3.5 0.00 0.00 0.00 33 1010.0
20260508163818 58 160 2.6 3.5 0.00 0.00 0.00 34 1010.2
20260508162815 57 339 3.5 5.2 0.00 0.00 0.00 40 1010.3
20260508161838 57 40 0.9 1.7 0.00 0.00 0.00 39 1010.3
20260508160858 57 0.0 0.0 0.00 0.00 0.00 38 1010.4
20260508155816 57 223 1.7 4.3 0.00 0.00 0.00 41 1010.5
20260508154816 56 238 3.5 5.2 0.00 0.00 0.00 41 1010.4
20260508153836 56 216 1.7 3.5 0.00 0.00 0.00 46 1010.5
20260508152816 56 319 0.0 1.7 0.00 0.00 0.00 44 1010.6
20260508151816 55 180 2.6 3.5 0.00 0.00 0.00 45 1010.7
20260508150816 55 239 1.7 3.5 0.00 0.00 0.00 52 1010.8
20260508145817 54 341 0.9 3.5 0.00 0.00 0.00 53 1010.9
20260508144817 54 300 3.5 4.3 0.00 0.00 0.00 49 1011.0
20260508143824 54 179 0.9 1.7 0.00 0.00 0.00 63 1011.0
20260508142825 53 211 2.6 3.5 0.00 0.00 0.00 61 1011.1
20260508141825 53 300 2.6 3.5 0.00 0.00 0.00 66 1011.1
20260508140825 52 219 1.7 3.5 0.00 0.00 0.00 69 1011.2
20260508135825 52 182 0.9 1.7 0.00 0.00 0.00 69 1011.3
20260508134845 51 225 0.9 0.9 0.00 0.00 0.00 70 1011.2
20260508133825 51 343 0.9 1.7 0.00 0.00 0.00 71 1011.3
20260508132825 50 261 0.9 1.7 0.00 0.00 0.00 75 1011.3
20260508131825 49 169 0.9 1.7 0.00 0.00 0.00 74 1011.4
20260508130826 48 255 1.7 1.7 0.00 0.00 0.00 75 1011.5
20260508125826 47 214 0.9 1.7 0.00 0.00 0.00 78 1011.5
20260508124826 46 167 1.7 1.7 0.00 0.00 0.00 77 1011.6
20260508123826 45 227 0.9 0.9 0.00 0.00 0.00 78 1011.7
20260508122826 44 173 0.0 0.0 0.00 0.00 0.00 80 1011.6
20260508121826 42 0.0 0.0 0.00 0.00 0.00 82 1011.5
20260508120827 41 0.0 0.0 0.00 0.00 0.00 85 1011.4
20260508115827 40 0.0 0.0 0.00 0.00 0.00 88 1011.3
20260508114827 39 0.0 0.0 0.00 0.00 0.00 90 1011.2
20260508113827 38 0.0 0.0 0.00 0.00 0.00 94 1011.1
20260508112827 37 0.0 0.0 0.00 0.00 0.00 92 1011.0
20260508111827 36 0.0 0.0 0.00 0.00 0.00 94 1011.0
20260508110828 36 0.0 0.0 0.00 0.00 0.00 95 1011.0
20260508105828 36 0.0 0.0 0.00 0.00 0.00 94 1011.0
20260508104828 36 0.0 0.0 0.00 0.00 0.00 93 1010.9
20260508103828 36 0.0 0.0 0.00 0.00 0.00 92 1010.8
20260508102848 37 0.0 0.0 0.00 0.00 0.00 94 1010.7
20260508101828 36 0.0 0.0 0.00 0.00 0.00 95 1010.7
20260508100829 37 0.0 0.0 0.00 0.00 0.00 94 1010.9
20260508095829 37 0.0 0.0 0.00 0.00 0.00 95 1010.9
20260508094815 37 0.0 0.0 0.00 0.00 0.00 93 1010.9
20260508093816 37 0.0 0.0 0.00 0.00 0.00 93 1010.9
20260508092816 38 0.0 0.0 0.00 0.00 0.00 94 1011.1
20260508091816 38 260 0.0 0.0 0.00 0.00 0.00 95 1011.1
20260508090816 38 267 0.9 0.9 0.00 0.00 0.00 92 1011.1